Notices

What's New in latest Release from April 7th, 2021:

- Updated Glossary, including Speed of Maximum Gust, and Total Hourly Precipitation

- Updated national and regional climate services offices contacts and prices information

- Addition of station inventory lists for 1981-2010, 1971-2000, and 1961-1990 Normals.

Please note that as of June 10, 2021 UTC dates are available for all years 2004-present, and DBA is working on populating the remaining years (2003 to 1953).

If you haven't already, please take our survey and provide feedback about our website: https://eccc.sondage-survey.ca/f/LanguageSelection.aspx?s=442ca660-fcf1-47c0-95a9-59707d6fd709

Hourly Data Report for February 01, 2012

HALIFAX STANFIELD INT'L A
NOVA SCOTIA

44°52'48.060" N
63°30'00.050" W
145.40 m
8202250
71395
YHZ

Download Data

Hourly Data (February 2012)
Hourly Data Report for February 1, 2012
TIME
LST
Temp Definition
°C
Dew Point Definition
°C
Rel Hum Definition
%
Precip. Amount Definition
mm

Wind Dir Definition
10's deg

Wind Spd Definition
km/h
Visibility Definition
km
Stn Press Definition
kPa
Hmdx Definition


Wind Chill Definition


Weather Definition


00:00 -7.5 -10.2 81   9 4 24.1 100.38   -10 Cloudy
01:00 -7.2 -9.9 81   8 4 24.1 100.36   -9 Cloudy
02:00 -7.1 -9.7 82   10 6 24.1 100.32   -10 Cloudy
03:00 -7.1 -10.1 79   10 13 24.1 100.27   -13 Snow
04:00 -7.1 -10.3 78   9 15 24.1 100.24   -13 Snow
05:00 -7.1 -10.5 77   10 19 24.1 100.20   -14 Snow
06:00 -7.1 -10.5 77   10 13 24.1 100.17   -13 Snow
07:00 -7.2 -9.7 82   11 17 19.3 100.13   -14 Snow
08:00 -7.0 -8.8 87   10 19 3.2 100.13   -14 Snow
09:00 -6.7 -8.2 89   9 24 2.0 99.95   -14 Snow
10:00 -6.3 -7.5 91   9 20 9.7 99.95   -13 Snow
11:00 -5.4 -6.3 93   11 19 2.0 99.85   -12 Snow
12:00 -4.0 -5.0 93   10 17 1.6 99.67   -10 Snow
13:00 -2.9 -3.6 95   12 20 2.4 99.47   -9 Freezing Rain,Snow
14:00 -0.4 -0.6 99   13 32 2.4 99.23   -7 Freezing Rain,Fog
15:00 0.2 0.0 99   14 20 1.2 99.12     Rain,Snow,Fog
16:00 0.7 0.5 99   13 35 1.2 99.00     Rain,Fog
17:00 1.1 1.0 99   13 26 1.0 98.86     Rain,Fog
18:00 1.3 1.3 100   10 11 0.8 98.82     Rain,Fog
19:00 1.0 1.0 100   9 11 0.8 98.75     Rain,Fog
20:00 0.1 0.1 100   33 9 0.4 98.85     Rain,Fog
21:00 0.2 0.1 99   34 9 0.6 98.85     Fog
22:00 -0.1 -0.1 100   35 7 0.4 98.85   -3 Freezing Fog
23:00 -0.4 -0.4 100   34 15 0.2 98.89   -5 Freezing Fog

Notes on Data Quality.

Legend

  • E = Estimated
  • M = Missing
  • NA = Not Available*
  • [empty] = Indicates an unobserved value
Date modified: